Regional Weather Roundup
Issued by NWS

Home | Current Version | Previous Version | Text Only | Print | Product List | Glossary On
Versions: 1 2 3 4 5 6 7 8 9 10 11 12 13 14 15 16 17 18 19 20 21 22 23 24 25 26 27 28 29 30 31 32 33 34 35 36 37 38 39 40 41 42 43 44 45 46 47 48 49 50
000
ASUS45 KREV 010910
RWRNV
NEVADA REGIONAL WEATHER ROUNDUP
NATIONAL WEATHER SERVICE RENO NV
100 AM PST SUN MAR 01 2015

NOTE: "FAIR" INDICATES FEW OR NO CLOUDS BELOW 12,000 FEET WITH NO
SIGNIFICANT WEATHER AND/OR OBSTRUCTIONS TO VISIBILITY.

NVZ001-003-004-011000-
WESTERN NEVADA

CITY           SKY/WX    TMP DP  RH WIND       PRES   REMARKS
RENO           CLOUDY    37  32  82 N6        29.96R
CARSON CITY    FLURRIES  32  32 100 CALM      29.96R
MINDEN         CLOUDY    32  32 100 NW12      29.95R
SLIDE MTN        N/A     19  18  93 E13         N/A
PYRAMID LAKE     N/A     39 N/A N/A NW9         N/A
FALLON         CLOUDY    34  33  96 CALM      29.95S
LOVELOCK       CLOUDY    37  27  67 NE12      29.96R
HAWTHORNE      CLOUDY    37  34  87 NW3       29.94R
$$

NVZ002-CAZ072-073-011000-
NORTHERN AND CENTRAL SIERRA

CITY           SKY/WX    TMP DP  RH WIND       PRES   REMARKS
S. LAKE TAHOE  LGT SNOW  32  25  75 N3        29.89R
TRUCKEE        CLOUDY    30  27  86 N7        29.92R
SQUAW VLY 8000   N/A     23  23 100 CALM        N/A
SUSANVILLE     CLOUDY    37  28  70 N7        30.00R
BLUE CANYON    PTCLDY    33  24  69 NW5       29.91R
MAMMOTH LAKES  CLOUDY    23  19  86 CALM      29.89R
BRIDGEPORT     CLOUDY    24  20  84 CALM      29.86R
$$

NVZ030-031-036-011000-
NORTHERN NEVADA

CITY           SKY/WX    TMP DP  RH WIND       PRES   REMARKS
ELKO           CLEAR     30  22  72 NE13      29.96R
WINNEMUCCA     CLOUDY    34  26  72 NE16      29.99R
WENDOVER       CLOUDY    37  25  60 W3        29.98R
$$

NVZ035-037-011000-
CENTRAL NEVADA

CITY           SKY/WX    TMP DP  RH WIND       PRES   REMARKS
ELY            CLOUDY    29  26  89 NE7       29.93R
EUREKA           N/A     30  26  85 CALM      29.92R
$$

NVZ013-014-011000-
SOUTH CENTRAL NEVADA

CITY           SKY/WX    TMP DP  RH WIND       PRES   REMARKS
TONOPAH        CLOUDY    27  21  78 N7        29.92R
$$

NVZ017-020-022-011000-
SOUTHERN NEVADA

CITY           SKY/WX    TMP DP  RH WIND       PRES   REMARKS
LAS VEGAS      MOCLDY    51  34  52 CALM      29.85R
N. LAS VEGAS   PTCLDY    48  33  56 CALM      29.88R
NELLIS AFB     PTCLDY    51  37  58 E10       29.88R
HENDERSON      MOCLDY    45  32  60 S6        29.90R
MERCURY        CLEAR     41  30  65 N5        29.89R
$$


USA.gov is the U.S. government's official web portal to all federal, state and local government web resources and services.